Time,TemperatureF,DewpointF,PressureIn,WindDirection,WindDirectionDegrees,WindSpeedMPH,WindSpeedGustMPH,Humidity,HourlyPrecipIn,Conditions,Clouds,dailyrainin,SoftwareType,DateUTC
2013-02-21 00:00:00,73.3,63.7,29.91,WNW,293,2.0,2.0,72,0.00,,,0.00,WUHU216HW,2013-02-21 10:00:00,
2013-02-21 00:05:00,73.3,63.7,29.91,SE,135,3.4,3.4,72,0.00,,,0.00,WUHU216HW,2013-02-21 10:05:00,
2013-02-21 00:10:00,73.3,63.7,29.91,ESE,113,1.1,3.4,72,0.00,,,0.00,WUHU216HW,2013-02-21 10:10:00,
2013-02-21 00:15:00,73.3,63.7,29.91,NE,45,3.4,3.4,72,0.00,,,0.00,WUHU216HW,2013-02-21 10:15:00,
2013-02-21 00:20:00,73.3,63.7,29.91,South,180,3.8,3.8,72,0.00,,,0.00,WUHU216HW,2013-02-21 10:20:00,
2013-02-21 00:25:00,73.3,63.7,29.91,WSW,248,3.4,3.8,72,0.00,,,0.00,WUHU216HW,2013-02-21 10:25:00,
2013-02-21 00:30:00,73.3,63.7,29.91,NNE,23,2.9,3.8,72,0.00,,,0.00,WUHU216HW,2013-02-21 10:30:00,
2013-02-21 00:35:00,73.1,63.5,29.91,SE,135,2.0,3.4,72,0.00,,,0.00,WUHU216HW,2013-02-21 10:35:00,
2013-02-21 00:40:00,73.1,63.5,29.91,East,90,1.3,3.4,72,0.00,,,0.00,WUHU216HW,2013-02-21 10:40:00,
2013-02-21 00:45:00,73.1,63.5,29.91,NNE,23,1.3,2.0,72,0.00,,,0.00,WUHU216HW,2013-02-21 10:45:00,
2013-02-21 00:50:00,73.1,63.5,29.91,NE,45,0.4,1.3,72,0.00,,,0.00,WUHU216HW,2013-02-21 10:50:00,
2013-02-21 00:55:00,73.1,63.5,29.91,South,180,2.0,2.0,72,0.00,,,0.00,WUHU216HW,2013-02-21 10:55:00,
2013-02-21 01:00:00,73.1,63.5,29.91,North,0,0.2,2.5,72,0.00,,,0.00,WUHU216HW,2013-02-21 11:00:00,
2013-02-21 01:05:00,73.1,63.5,29.91,East,90,2.7,2.7,72,0.00,,,0.00,WUHU216HW,2013-02-21 11:05:00,
2013-02-21 01:10:00,73.1,64.0,29.91,SSW,203,1.1,2.7,73,0.00,,,0.00,WUHU216HW,2013-02-21 11:10:00,
2013-02-21 01:15:00,73.1,64.0,29.91,East,90,2.0,2.7,73,0.00,,,0.00,WUHU216HW,2013-02-21 11:15:00,
2013-02-21 01:20:00,73.1,64.0,29.90,South,180,2.9,2.9,73,0.00,,,0.00,WUHU216HW,2013-02-21 11:20:00,
2013-02-21 01:25:00,73.1,64.0,29.91,ENE,68,1.8,2.9,73,0.00,,,0.00,WUHU216HW,2013-02-21 11:25:00,
2013-02-21 01:30:00,73.1,64.0,29.91,SE,135,2.9,2.9,73,0.00,,,0.00,WUHU216HW,2013-02-21 11:30:00,
2013-02-21 01:35:00,72.9,63.8,29.90,ESE,113,1.8,2.9,73,0.00,,,0.00,WUHU216HW,2013-02-21 11:35:00,
2013-02-21 01:40:00,72.9,63.8,29.90,ESE,113,1.1,2.9,73,0.00,,,0.00,WUHU216HW,2013-02-21 11:40:00,
2013-02-21 01:45:00,72.9,63.8,29.90,SSE,158,2.5,2.5,73,0.00,,,0.00,WUHU216HW,2013-02-21 11:45:00,
2013-02-21 01:50:00,72.9,63.8,29.90,SE,135,2.2,2.5,73,0.00,,,0.00,WUHU216HW,2013-02-21 11:50:00,
2013-02-21 01:55:00,72.9,63.8,29.90,SE,135,2.0,2.5,73,0.00,,,0.00,WUHU216HW,2013-02-21 11:55:00,
2013-02-21 02:00:00,72.9,63.8,29.89,ESE,113,2.9,2.9,73,0.00,,,0.00,WUHU216HW,2013-02-21 12:00:00,
2013-02-21 02:05:00,72.9,64.2,29.89,ENE,68,2.2,2.9,74,0.00,,,0.00,WUHU216HW,2013-02-21 12:05:00,
2013-02-21 02:10:00,72.9,64.2,29.89,SW,225,2.5,2.7,74,0.00,,,0.00,WUHU216HW,2013-02-21 12:10:00,
2013-02-21 02:15:00,72.9,64.2,29.89,ESE,113,2.5,2.5,74,0.00,,,0.00,WUHU216HW,2013-02-21 12:15:00,
2013-02-21 02:20:00,72.9,64.2,29.89,SW,225,2.5,2.5,74,0.00,,,0.00,WUHU216HW,2013-02-21 12:20:00,
2013-02-21 02:25:00,72.9,64.2,29.89,East,90,2.9,2.9,74,0.00,,,0.00,WUHU216HW,2013-02-21 12:25:00,
2013-02-21 02:30:00,72.9,64.2,29.88,SE,135,2.7,2.9,74,0.00,,,0.00,WUHU216HW,2013-02-21 12:30:00,
2013-02-21 02:35:00,72.9,64.2,29.88,SSE,158,3.6,3.6,74,0.00,,,0.00,WUHU216HW,2013-02-21 12:35:00,
2013-02-21 02:40:00,72.9,64.2,29.88,ENE,68,1.1,3.6,74,0.00,,,0.00,WUHU216HW,2013-02-21 12:40:00,
2013-02-21 02:45:00,72.9,64.2,29.88,NNW,338,1.8,3.6,74,0.00,,,0.00,WUHU216HW,2013-02-21 12:45:00,
2013-02-21 02:50:00,72.9,64.2,29.88,SE,135,1.8,1.8,74,0.00,,,0.00,WUHU216HW,2013-02-21 12:50:00,
2013-02-21 02:55:00,72.9,64.2,29.88,South,180,2.5,2.5,74,0.00,,,0.00,WUHU216HW,2013-02-21 12:55:00,
2013-02-21 03:00:00,72.9,64.2,29.88,SE,135,1.8,2.5,74,0.00,,,0.00,WUHU216HW,2013-02-21 13:00:00,
2013-02-21 03:05:00,72.9,64.5,29.88,ENE,68,1.8,2.5,75,0.00,,,0.00,WUHU216HW,2013-02-21 13:05:00,
2013-02-21 03:10:00,72.9,64.5,29.87,East,90,2.5,2.7,75,0.00,,,0.00,WUHU216HW,2013-02-21 13:10:00,
2013-02-21 03:15:00,72.9,64.5,29.87,East,90,2.7,2.7,75,0.00,,,0.00,WUHU216HW,2013-02-21 13:15:00,
2013-02-21 03:20:00,72.9,64.5,29.87,North,0,3.4,3.4,75,0.00,,,0.00,WUHU216HW,2013-02-21 13:20:00,
2013-02-21 03:22:00,72.9,64.5,29.87,ESE,113,2.5,2.5,75,0.00,,,0.00,WUHU216HW,2013-02-21 13:22:00,
2013-02-21 03:25:00,72.9,64.5,29.87,ESE,113,2.5,3.4,75,0.00,,,0.00,WUHU216HW,2013-02-21 13:25:00,
2013-02-21 03:30:00,72.9,64.5,29.87,ESE,113,2.5,3.4,75,0.00,,,0.00,WUHU216HW,2013-02-21 13:30:00,
2013-02-21 03:52:00,72.5,63.8,29.87,ESE,113,1.1,1.1,74,0.00,,,0.00,WUHU216HW,2013-02-21 13:52:00,
2013-02-21 03:57:00,72.5,63.8,29.86,East,90,2.0,2.0,74,0.00,,,0.00,WUHU216HW,2013-02-21 13:57:00,
2013-02-21 04:02:00,72.5,63.8,29.87,ESE,113,1.3,3.4,74,0.00,,,0.00,WUHU216HW,2013-02-21 14:02:00,
2013-02-21 04:07:00,72.7,64.0,29.87,SE,135,1.8,3.4,74,0.00,,,0.00,WUHU216HW,2013-02-21 14:07:00,
2013-02-21 04:12:00,72.5,63.8,29.86,NNE,23,1.8,4.5,74,0.00,,,0.00,WUHU216HW,2013-02-21 14:12:00,
2013-02-21 04:17:00,72.5,63.8,29.86,SE,135,2.9,4.5,74,0.00,,,0.00,WUHU216HW,2013-02-21 14:17:00,
2013-02-21 04:22:00,72.5,63.8,29.86,SSW,203,1.8,2.9,74,0.00,,,0.00,WUHU216HW,2013-02-21 14:22:00,
2013-02-21 04:27:00,72.5,63.8,29.86,South,180,4.0,4.0,74,0.00,,,0.00,WUHU216HW,2013-02-21 14:27:00,
2013-02-21 04:32:00,72.5,63.8,29.86,NNW,338,3.1,4.0,74,0.00,,,0.00,WUHU216HW,2013-02-21 14:32:00,
2013-02-21 04:37:00,72.7,64.0,29.86,ESE,113,1.8,4.0,74,0.00,,,0.00,WUHU216HW,2013-02-21 14:37:00,
2013-02-21 04:42:00,72.5,63.8,29.86,SSW,203,1.3,3.1,74,0.00,,,0.00,WUHU216HW,2013-02-21 14:42:00,
2013-02-21 04:47:00,72.5,63.8,29.86,North,0,2.5,2.5,74,0.00,,,0.00,WUHU216HW,2013-02-21 14:47:00,
2013-02-21 04:52:00,72.7,64.0,29.86,ESE,113,2.9,2.9,74,0.00,,,0.00,WUHU216HW,2013-02-21 14:52:00,
2013-02-21 04:57:00,72.7,64.4,29.86,ESE,113,1.3,2.9,75,0.00,,,0.00,WUHU216HW,2013-02-21 14:57:00,
2013-02-21 05:02:00,72.7,64.4,29.86,East,90,2.2,2.9,75,0.00,,,0.00,WUHU216HW,2013-02-21 15:02:00,
2013-02-21 05:07:00,72.7,64.4,29.86,SSE,158,0.9,2.7,75,0.00,,,0.00,WUHU216HW,2013-02-21 15:07:00,
2013-02-21 05:12:00,72.7,64.4,29.86,East,90,4.3,4.3,75,0.00,,,0.00,WUHU216HW,2013-02-21 15:12:00,
2013-02-21 05:17:00,72.7,64.4,29.86,SSE,158,4.0,4.3,75,0.00,,,0.00,WUHU216HW,2013-02-21 15:17:00,
2013-02-21 05:22:00,72.7,64.4,29.86,ESE,113,2.5,4.3,75,0.00,,,0.00,WUHU216HW,2013-02-21 15:22:00,
2013-02-21 05:27:00,72.7,64.4,29.86,SSE,158,2.7,4.0,75,0.00,,,0.00,WUHU216HW,2013-02-21 15:27:00,
2013-02-21 05:32:00,72.7,64.4,29.86,South,180,2.5,2.7,75,0.00,,,0.00,WUHU216HW,2013-02-21 15:32:00,
2013-02-21 05:37:00,72.7,64.4,29.86,ESE,113,3.1,3.1,75,0.00,,,0.00,WUHU216HW,2013-02-21 15:37:00,
2013-02-21 05:42:00,72.7,64.4,29.86,NE,45,2.2,3.1,75,0.00,,,0.00,WUHU216HW,2013-02-21 15:42:00,
2013-02-21 05:47:00,72.7,64.4,29.86,ENE,68,3.1,3.1,75,0.00,,,0.00,WUHU216HW,2013-02-21 15:47:00,
2013-02-21 05:52:00,72.7,64.4,29.86,WNW,293,8.7,8.7,75,0.00,,,0.00,WUHU216HW,2013-02-21 15:52:00,
2013-02-21 05:57:00,72.7,64.4,29.86,NE,45,3.8,8.7,75,0.00,,,0.00,WUHU216HW,2013-02-21 15:57:00,
2013-02-21 06:02:00,72.7,64.4,29.86,ENE,68,6.3,8.7,75,0.00,,,0.00,WUHU216HW,2013-02-21 16:02:00,
2013-02-21 06:07:00,72.5,64.5,29.86,North,0,5.1,7.4,76,0.00,,,0.00,WUHU216HW,2013-02-21 16:07:00,
2013-02-21 06:12:00,72.5,64.5,29.87,East,90,5.8,7.4,76,0.00,,,0.00,WUHU216HW,2013-02-21 16:12:00,
2013-02-21 06:17:00,72.4,64.4,29.87,WNW,293,5.1,6.9,76,0.00,,,0.00,WUHU216HW,2013-02-21 16:17:00,
2013-02-21 06:22:00,72.2,63.8,29.87,SE,135,4.5,5.8,75,0.00,,,0.00,WUHU216HW,2013-02-21 16:22:00,
2013-02-21 06:27:00,72.2,63.8,29.87,ENE,68,3.1,4.5,75,0.00,,,0.00,WUHU216HW,2013-02-21 16:27:00,
2013-02-21 06:32:00,72.2,63.8,29.88,NNE,23,2.7,4.5,75,0.00,,,0.00,WUHU216HW,2013-02-21 16:32:00,
2013-02-21 06:37:00,72.2,63.8,29.88,NE,45,5.8,5.8,75,0.00,,,0.00,WUHU216HW,2013-02-21 16:37:00,
2013-02-21 06:42:00,72.2,63.8,29.88,ENE,68,5.4,5.8,75,0.00,,,0.00,WUHU216HW,2013-02-21 16:42:00,
2013-02-21 06:47:00,72.0,63.6,29.88,SE,135,5.8,5.8,75,0.00,,,0.00,WUHU216HW,2013-02-21 16:47:00,
2013-02-21 06:52:00,72.0,63.6,29.88,SSE,158,4.0,5.8,75,0.00,,,0.00,WUHU216HW,2013-02-21 16:52:00,
2013-02-21 06:57:00,72.2,63.8,29.89,NNE,23,4.7,5.8,75,0.00,,,0.00,WUHU216HW,2013-02-21 16:57:00,
2013-02-21 07:02:00,72.0,63.6,29.89,NE,45,2.9,4.7,75,0.00,,,0.00,WUHU216HW,2013-02-21 17:02:00,
2013-02-21 07:07:00,72.0,63.6,29.89,East,90,4.0,4.7,75,0.00,,,0.00,WUHU216HW,2013-02-21 17:07:00,
2013-02-21 07:12:00,72.0,63.6,29.90,NNW,338,4.0,4.9,75,0.00,,,0.00,WUHU216HW,2013-02-21 17:12:00,
2013-02-21 07:13:00,72.0,63.6,29.90,NNW,338,4.0,4.0,75,0.00,,,0.00,WUHU216HW,2013-02-21 17:13:00,
2013-02-21 07:17:00,72.0,63.6,29.90,NNW,338,4.0,4.9,75,0.00,,,0.00,WUHU216HW,2013-02-21 17:17:00,
2013-02-21 07:22:00,72.0,63.6,29.90,NNW,338,4.0,4.0,75,0.00,,,0.00,WUHU216HW,2013-02-21 17:22:00,
2013-02-21 07:43:00,72.4,64.4,29.90,SE,135,4.3,4.3,76,0.00,,,0.00,WUHU216HW,2013-02-21 17:43:00,
2013-02-21 07:48:00,72.4,64.7,29.90,SE,135,3.1,4.3,77,0.00,,,0.00,WUHU216HW,2013-02-21 17:48:00,
2013-02-21 07:53:00,72.4,64.7,29.90,NE,45,2.5,4.3,77,0.00,,,0.00,WUHU216HW,2013-02-21 17:53:00,
2013-02-21 07:58:00,72.4,64.7,29.90,SE,135,3.1,3.1,77,0.00,,,0.00,WUHU216HW,2013-02-21 17:58:00,
2013-02-21 08:03:00,72.5,64.9,29.90,ESE,113,1.8,3.1,77,0.00,,,0.00,WUHU216HW,2013-02-21 18:03:00,
2013-02-21 08:08:00,72.5,64.9,29.90,South,180,2.5,3.1,77,0.00,,,0.00,WUHU216HW,2013-02-21 18:08:00,
2013-02-21 08:13:00,72.7,65.1,29.90,NNE,23,5.4,5.4,77,0.00,,,0.00,WUHU216HW,2013-02-21 18:13:00,
2013-02-21 08:18:00,72.7,65.1,29.89,ESE,113,2.0,5.4,77,0.00,,,0.00,WUHU216HW,2013-02-21 18:18:00,
2013-02-21 08:23:00,72.7,65.1,29.90,SSW,203,3.4,5.4,77,0.00,,,0.00,WUHU216HW,2013-02-21 18:23:00,
2013-02-21 08:28:00,72.7,65.1,29.90,SW,225,1.8,4.0,77,0.00,,,0.00,WUHU216HW,2013-02-21 18:28:00,
2013-02-21 08:33:00,72.7,65.1,29.90,ENE,68,5.1,5.1,77,0.00,,,0.00,WUHU216HW,2013-02-21 18:33:00,
2013-02-21 08:38:00,72.7,65.1,29.90,SE,135,2.9,5.1,77,0.00,,,0.00,WUHU216HW,2013-02-21 18:38:00,
2013-02-21 08:43:00,72.7,65.1,29.90,North,0,5.6,5.6,77,0.00,,,0.00,WUHU216HW,2013-02-21 18:43:00,
2013-02-21 08:48:00,72.7,65.1,29.90,ENE,68,10.1,10.1,77,0.00,,,0.00,WUHU216HW,2013-02-21 18:48:00,
2013-02-21 08:53:00,72.4,64.7,29.90,North,0,2.9,10.1,77,0.00,,,0.00,WUHU216HW,2013-02-21 18:53:00,
2013-02-21 08:58:00,72.4,64.7,29.91,North,0,2.5,7.4,77,0.00,,,0.00,WUHU216HW,2013-02-21 18:58:00,
2013-02-21 09:03:00,72.4,64.7,29.91,NNE,23,6.7,6.7,77,0.00,,,0.00,WUHU216HW,2013-02-21 19:03:00,
2013-02-21 09:08:00,72.2,64.5,29.91,NNW,338,8.5,8.5,77,0.00,,,0.00,WUHU216HW,2013-02-21 19:08:00,
2013-02-21 09:13:00,72.2,64.5,29.91,North,0,7.6,10.1,77,0.00,,,0.00,WUHU216HW,2013-02-21 19:13:00,
2013-02-21 09:18:00,72.0,64.4,29.91,NNE,23,4.5,10.1,77,0.00,,,0.00,WUHU216HW,2013-02-21 19:18:00,
2013-02-21 09:23:00,72.0,64.4,29.92,NE,45,4.3,7.6,77,0.00,,,0.00,WUHU216HW,2013-02-21 19:23:00,
2013-02-21 09:28:00,72.0,64.4,29.92,SSW,203,4.3,6.5,77,0.00,,,0.00,WUHU216HW,2013-02-21 19:28:00,
2013-02-21 09:33:00,72.2,64.5,29.92,NNW,338,3.8,4.3,77,0.00,,,0.00,WUHU216HW,2013-02-21 19:33:00,
2013-02-21 09:38:00,72.4,64.7,29.92,North,0,4.5,4.5,77,0.00,,,0.00,WUHU216HW,2013-02-21 19:38:00,
2013-02-21 09:43:00,72.4,64.7,29.92,NNE,23,3.4,6.7,77,0.00,,,0.00,WUHU216HW,2013-02-21 19:43:00,
2013-02-21 09:48:00,72.4,64.7,29.92,NNW,338,5.1,6.7,77,0.00,,,0.00,WUHU216HW,2013-02-21 19:48:00,
2013-02-21 09:53:00,72.4,64.7,29.92,ESE,113,3.4,5.1,77,0.00,,,0.00,WUHU216HW,2013-02-21 19:53:00,
2013-02-21 09:58:00,72.4,64.7,29.92,East,90,4.0,5.1,77,0.00,,,0.00,WUHU216HW,2013-02-21 19:58:00,
2013-02-21 10:03:00,72.5,65.4,29.91,NE,45,5.1,5.1,78,0.00,,,0.00,WUHU216HW,2013-02-21 20:03:00,
2013-02-21 10:08:00,72.7,65.5,29.91,ENE,68,2.2,5.1,78,0.00,,,0.00,WUHU216HW,2013-02-21 20:08:00,
2013-02-21 10:13:00,72.7,65.5,29.91,NW,315,4.7,4.7,78,0.00,,,0.00,WUHU216HW,2013-02-21 20:13:00,
2013-02-21 10:18:00,72.7,65.5,29.91,NNE,23,4.0,4.7,78,0.00,,,0.00,WUHU216HW,2013-02-21 20:18:00,
2013-02-21 10:23:00,72.9,65.7,29.91,SW,225,6.3,6.3,78,0.00,,,0.00,WUHU216HW,2013-02-21 20:23:00,
2013-02-21 10:28:00,72.9,65.7,29.91,North,0,5.6,8.1,78,0.00,,,0.00,WUHU216HW,2013-02-21 20:28:00,
2013-02-21 10:33:00,72.9,65.7,29.91,North,0,3.8,8.1,78,0.00,,,0.00,WUHU216HW,2013-02-21 20:33:00,
2013-02-21 10:38:00,72.9,65.3,29.91,ESE,113,2.9,5.6,77,0.00,,,0.00,WUHU216HW,2013-02-21 20:38:00,
2013-02-21 10:43:00,73.1,65.4,29.91,SSE,158,2.5,4.0,77,0.00,,,0.00,WUHU216HW,2013-02-21 20:43:00,
2013-02-21 10:48:00,73.1,65.4,29.91,WSW,248,4.0,4.0,77,0.00,,,0.00,WUHU216HW,2013-02-21 20:48:00,
2013-02-21 10:53:00,73.1,65.4,29.91,ESE,113,6.9,6.9,77,0.00,,,0.00,WUHU216HW,2013-02-21 20:53:00,
2013-02-21 10:58:00,73.3,65.6,29.91,West,270,3.8,6.9,77,0.00,,,0.00,WUHU216HW,2013-02-21 20:58:00,
2013-02-21 11:03:00,73.1,65.4,29.91,North,0,8.3,8.5,77,0.00,,,0.00,WUHU216HW,2013-02-21 21:03:00,
2013-02-21 11:08:00,73.1,65.4,29.90,NE,45,5.8,8.5,77,0.00,,,0.00,WUHU216HW,2013-02-21 21:08:00,
2013-02-21 11:13:00,73.1,65.4,29.90,SW,225,4.0,5.8,77,0.00,,,0.00,WUHU216HW,2013-02-21 21:13:00,
2013-02-21 11:18:00,73.3,65.6,29.90,East,90,4.7,6.7,77,0.00,,,0.00,WUHU216HW,2013-02-21 21:18:00,
2013-02-21 11:23:00,73.3,65.3,29.90,NNW,338,8.1,8.1,76,0.00,,,0.00,WUHU216HW,2013-02-21 21:23:00,
2013-02-21 11:28:00,73.3,65.6,29.90,NNE,23,6.9,8.1,77,0.00,,,0.00,WUHU216HW,2013-02-21 21:28:00,
2013-02-21 11:33:00,73.3,65.6,29.91,WNW,293,6.0,8.1,77,0.00,,,0.00,WUHU216HW,2013-02-21 21:33:00,
2013-02-21 11:38:00,73.3,65.6,29.91,NNW,338,9.4,9.4,77,0.00,,,0.00,WUHU216HW,2013-02-21 21:38:00,
2013-02-21 11:43:00,73.1,65.4,29.91,NE,45,8.7,9.4,77,0.00,,,0.00,WUHU216HW,2013-02-21 21:43:00,
2013-02-21 11:48:00,73.1,65.4,29.90,NNE,23,7.4,9.4,77,0.00,,,0.00,WUHU216HW,2013-02-21 21:48:00,
2013-02-21 11:53:00,73.1,65.9,29.90,SSW,203,3.4,8.7,78,0.00,,,0.00,WUHU216HW,2013-02-21 21:53:00,
2013-02-21 11:58:00,73.1,65.9,29.90,ENE,68,4.0,7.4,78,0.00,,,0.00,WUHU216HW,2013-02-21 21:58:00,
2013-02-21 12:03:00,73.1,65.9,29.90,SSE,158,1.8,5.6,78,0.00,,,0.00,WUHU216HW,2013-02-21 22:03:00,
2013-02-21 12:08:00,73.4,66.3,29.89,ENE,68,2.5,8.1,78,0.00,,,0.00,WUHU216HW,2013-02-21 22:08:00,
2013-02-21 12:13:00,73.4,66.3,29.90,ESE,113,4.5,8.1,78,0.00,,,0.00,WUHU216HW,2013-02-21 22:13:00,
2013-02-21 12:18:00,73.6,66.4,29.89,ENE,68,1.6,5.6,78,0.00,,,0.00,WUHU216HW,2013-02-21 22:18:00,
2013-02-21 12:23:00,73.6,66.4,29.89,SE,135,1.8,4.3,78,0.00,,,0.00,WUHU216HW,2013-02-21 22:23:00,
2013-02-21 12:28:00,73.8,66.6,29.89,East,90,3.8,3.8,78,0.00,,,0.00,WUHU216HW,2013-02-21 22:28:00,
2013-02-21 12:33:00,73.8,66.6,29.89,NNW,338,3.4,4.0,78,0.00,,,0.00,WUHU216HW,2013-02-21 22:33:00,
2013-02-21 12:38:00,73.8,66.6,29.88,SE,135,3.1,4.0,78,0.00,,,0.00,WUHU216HW,2013-02-21 22:38:00,
2013-02-21 12:43:00,73.8,66.6,29.88,SSE,158,4.0,4.0,78,0.00,,,0.00,WUHU216HW,2013-02-21 22:43:00,
2013-02-21 12:48:00,74.0,66.7,29.88,ESE,113,3.8,4.0,78,0.00,,,0.00,WUHU216HW,2013-02-21 22:48:00,
2013-02-21 12:53:00,74.2,66.9,29.88,SSE,158,2.7,3.8,78,0.00,,,0.00,WUHU216HW,2013-02-21 22:53:00,
2013-02-21 12:58:00,74.2,66.9,29.88,ENE,68,4.7,4.7,78,0.00,,,0.00,WUHU216HW,2013-02-21 22:58:00,
2013-02-21 13:03:00,74.2,66.9,29.88,SSW,203,1.8,4.7,78,0.00,,,0.00,WUHU216HW,2013-02-21 23:03:00,
2013-02-21 13:08:00,74.2,66.9,29.88,SE,135,3.4,3.8,78,0.00,,,0.00,WUHU216HW,2013-02-21 23:08:00,
2013-02-21 13:13:00,74.2,66.9,29.87,SSE,158,3.8,5.4,78,0.00,,,0.00,WUHU216HW,2013-02-21 23:13:00,
2013-02-21 13:18:00,74.2,66.9,29.88,SSE,158,3.4,6.3,78,0.00,,,0.00,WUHU216HW,2013-02-21 23:18:00,
2013-02-21 13:23:00,74.2,66.5,29.88,SSE,158,2.9,6.3,77,0.00,,,0.00,WUHU216HW,2013-02-21 23:23:00,
2013-02-21 13:28:00,74.3,66.7,29.87,SSE,158,3.6,3.6,77,0.00,,,0.00,WUHU216HW,2013-02-21 23:28:00,
2013-02-21 13:33:00,74.3,66.7,29.88,NW,315,2.5,4.9,77,0.00,,,0.00,WUHU216HW,2013-02-21 23:33:00,
2013-02-21 13:38:00,74.3,66.7,29.87,East,90,4.3,4.9,77,0.00,,,0.00,WUHU216HW,2013-02-21 23:38:00,
2013-02-21 13:43:00,74.3,66.7,29.87,SW,225,4.0,4.3,77,0.00,,,0.00,WUHU216HW,2013-02-21 23:43:00,
2013-02-21 13:48:00,74.3,66.7,29.87,SE,135,3.8,4.0,77,0.00,,,0.00,WUHU216HW,2013-02-21 23:48:00,
2013-02-21 13:53:00,74.3,66.3,29.87,East,90,3.6,4.0,76,0.00,,,0.00,WUHU216HW,2013-02-21 23:53:00,
2013-02-21 13:58:00,74.5,66.5,29.86,NE,45,3.8,3.8,76,0.00,,,0.00,WUHU216HW,2013-02-21 23:58:00,
2013-02-21 14:03:00,74.5,66.5,29.86,WSW,248,4.9,4.9,76,0.00,,,0.00,WUHU216HW,2013-02-22 00:03:00,
2013-02-21 14:08:00,74.5,66.5,29.86,NE,45,5.8,5.8,76,0.00,,,0.00,WUHU216HW,2013-02-22 00:08:00,
2013-02-21 14:13:00,74.5,66.5,29.86,WSW,248,4.0,5.8,76,0.00,,,0.00,WUHU216HW,2013-02-22 00:13:00,
2013-02-21 14:18:00,74.5,66.5,29.86,SW,225,3.8,5.8,76,0.00,,,0.00,WUHU216HW,2013-02-22 00:18:00,
2013-02-21 14:23:00,74.5,66.5,29.85,ENE,68,4.0,4.9,76,0.00,,,0.00,WUHU216HW,2013-02-22 00:23:00,
2013-02-21 14:28:00,74.5,66.5,29.86,SSE,158,3.6,4.0,76,0.00,,,0.00,WUHU216HW,2013-02-22 00:28:00,
2013-02-21 14:33:00,74.5,66.5,29.86,SE,135,1.1,4.0,76,0.00,,,0.00,WUHU216HW,2013-02-22 00:33:00,
2013-02-21 14:38:00,74.5,66.5,29.86,NE,45,5.4,5.4,76,0.00,,,0.00,WUHU216HW,2013-02-22 00:38:00,
2013-02-21 14:43:00,74.5,66.1,29.86,ESE,113,4.7,5.4,75,0.00,,,0.00,WUHU216HW,2013-02-22 00:43:00,
2013-02-21 14:48:00,74.5,66.1,29.86,SE,135,3.4,5.4,75,0.00,,,0.00,WUHU216HW,2013-02-22 00:48:00,
2013-02-21 14:53:00,74.5,66.1,29.86,South,180,3.1,4.7,75,0.00,,,0.00,WUHU216HW,2013-02-22 00:53:00,
2013-02-21 14:58:00,74.5,66.1,29.86,SE,135,3.6,3.6,75,0.00,,,0.00,WUHU216HW,2013-02-22 00:58:00,
2013-02-21 15:03:00,74.5,66.1,29.86,NW,315,3.6,3.6,75,0.00,,,0.00,WUHU216HW,2013-02-22 01:03:00,
2013-02-21 15:08:00,74.5,66.1,29.86,NE,45,1.1,3.6,75,0.00,,,0.00,WUHU216HW,2013-02-22 01:08:00,
2013-02-21 15:13:00,74.5,66.1,29.86,East,90,2.5,3.6,75,0.00,,,0.00,WUHU216HW,2013-02-22 01:13:00,
2013-02-21 15:18:00,74.5,66.5,29.86,SE,135,3.1,3.1,76,0.00,,,0.00,WUHU216HW,2013-02-22 01:18:00,
2013-02-21 15:23:00,74.5,66.5,29.86,NNW,338,3.4,3.4,76,0.00,,,0.00,WUHU216HW,2013-02-22 01:23:00,
2013-02-21 15:28:00,74.5,66.5,29.86,South,180,4.3,4.3,76,0.00,,,0.00,WUHU216HW,2013-02-22 01:28:00,
2013-02-21 15:33:00,74.3,66.3,29.85,SE,135,2.7,4.3,76,0.00,,,0.00,WUHU216HW,2013-02-22 01:33:00,
2013-02-21 15:38:00,74.3,65.9,29.85,East,90,3.6,4.3,75,0.00,,,0.00,WUHU216HW,2013-02-22 01:38:00,
2013-02-21 15:43:00,74.3,65.9,29.86,ENE,68,3.4,3.6,75,0.00,,,0.00,WUHU216HW,2013-02-22 01:43:00,
2013-02-21 15:48:00,74.3,65.9,29.86,SW,225,2.5,4.0,75,0.00,,,0.00,WUHU216HW,2013-02-22 01:48:00,
2013-02-21 15:53:00,74.5,66.1,29.86,SSE,158,2.0,4.0,75,0.00,,,0.00,WUHU216HW,2013-02-22 01:53:00,
2013-02-21 15:58:00,74.5,66.5,29.86,South,180,4.0,4.0,76,0.00,,,0.00,WUHU216HW,2013-02-22 01:58:00,
2013-02-21 16:03:00,74.5,66.5,29.86,SE,135,4.7,4.7,76,0.00,,,0.00,WUHU216HW,2013-02-22 02:03:00,
2013-02-21 16:08:00,74.5,66.5,29.86,NE,45,3.6,4.7,76,0.00,,,0.00,WUHU216HW,2013-02-22 02:08:00,
2013-02-21 16:13:00,74.5,66.5,29.86,SSE,158,2.9,4.7,76,0.00,,,0.00,WUHU216HW,2013-02-22 02:13:00,
2013-02-21 16:19:00,74.5,66.9,29.86,ESE,113,3.4,3.6,77,0.00,,,0.00,WUHU216HW,2013-02-22 02:19:00,
2013-02-21 16:24:00,74.5,66.9,29.86,NNW,338,3.4,3.4,77,0.00,,,0.00,WUHU216HW,2013-02-22 02:24:00,
2013-02-21 16:28:00,74.5,66.9,29.86,SE,135,3.1,3.4,77,0.00,,,0.00,WUHU216HW,2013-02-22 02:28:00,
2013-02-21 16:34:00,74.5,66.9,29.86,NNE,23,2.5,3.4,77,0.00,,,0.00,WUHU216HW,2013-02-22 02:34:00,
2013-02-21 16:38:00,74.3,66.7,29.86,SE,135,5.4,5.4,77,0.00,,,0.00,WUHU216HW,2013-02-22 02:38:00,
2013-02-21 16:44:00,74.3,66.7,29.86,SW,225,4.3,5.4,77,0.00,,,0.00,WUHU216HW,2013-02-22 02:44:00,
2013-02-21 16:49:00,74.3,66.7,29.87,East,90,2.5,5.4,77,0.00,,,0.00,WUHU216HW,2013-02-22 02:49:00,
2013-02-21 16:54:00,74.3,66.7,29.87,SSE,158,3.8,4.3,77,0.00,,,0.00,WUHU216HW,2013-02-22 02:54:00,
2013-02-21 16:59:00,74.3,66.7,29.87,South,180,4.0,4.0,77,0.00,,,0.00,WUHU216HW,2013-02-22 02:59:00,
2013-02-21 17:04:00,74.3,66.3,29.87,ENE,68,3.6,4.0,76,0.00,,,0.00,WUHU216HW,2013-02-22 03:04:00,
2013-02-21 17:09:00,74.2,66.2,29.87,SE,135,4.5,4.5,76,0.00,,,0.00,WUHU216HW,2013-02-22 03:09:00,
2013-02-21 17:14:00,74.3,66.3,29.87,SW,225,2.2,4.5,76,0.00,,,0.00,WUHU216HW,2013-02-22 03:14:00,
2013-02-21 17:19:00,74.2,66.2,29.87,SE,135,1.8,3.6,76,0.00,,,0.00,WUHU216HW,2013-02-22 03:19:00,
2013-02-21 17:24:00,74.2,66.2,29.87,NNE,23,8.5,8.5,76,0.00,,,0.00,WUHU216HW,2013-02-22 03:24:00,
2013-02-21 17:29:00,73.4,65.1,29.88,NE,45,6.7,8.5,75,0.00,,,0.00,WUHU216HW,2013-02-22 03:29:00,
2013-02-21 17:34:00,73.1,65.1,29.88,NNW,338,3.8,6.9,76,0.00,,,0.00,WUHU216HW,2013-02-22 03:34:00,
2013-02-21 17:39:00,72.7,64.7,29.88,NNW,338,5.6,6.7,76,0.00,,,0.00,WUHU216HW,2013-02-22 03:39:00,
2013-02-21 17:44:00,72.4,64.7,29.88,North,0,4.7,5.6,77,0.00,,,0.00,WUHU216HW,2013-02-22 03:44:00,
2013-02-21 17:49:00,72.2,64.5,29.88,North,0,4.5,7.4,77,0.00,,,0.00,WUHU216HW,2013-02-22 03:49:00,
2013-02-21 17:54:00,72.0,64.4,29.88,ENE,68,4.0,7.4,77,0.00,,,0.00,WUHU216HW,2013-02-22 03:54:00,
2013-02-21 17:59:00,72.0,64.8,29.88,NE,45,2.2,4.5,78,0.00,,,0.00,WUHU216HW,2013-02-22 03:59:00,
2013-02-21 18:04:00,72.0,64.8,29.88,NE,45,2.2,4.0,78,0.00,,,0.00,WUHU216HW,2013-02-22 04:04:00,
2013-02-21 18:09:00,72.2,65.4,29.88,WNW,293,4.0,4.0,79,0.00,,,0.00,WUHU216HW,2013-02-22 04:09:00,
2013-02-21 18:14:00,72.2,65.4,29.88,NE,45,2.2,5.6,79,0.00,,,0.00,WUHU216HW,2013-02-22 04:14:00,
2013-02-21 18:19:00,72.2,65.4,29.88,South,180,3.4,5.6,79,0.00,,,0.00,WUHU216HW,2013-02-22 04:19:00,
2013-02-21 18:24:00,72.2,65.4,29.88,ESE,113,3.1,4.5,79,0.00,,,0.00,WUHU216HW,2013-02-22 04:24:00,
2013-02-21 18:29:00,72.2,65.4,29.88,SE,135,2.5,4.3,79,0.00,,,0.00,WUHU216HW,2013-02-22 04:29:00,
2013-02-21 18:34:00,72.4,65.5,29.88,ESE,113,1.3,4.3,79,0.00,,,0.00,WUHU216HW,2013-02-22 04:34:00,
2013-02-21 18:39:00,72.4,65.9,29.88,South,180,1.6,2.5,80,0.00,,,0.00,WUHU216HW,2013-02-22 04:39:00,
2013-02-21 18:44:00,72.4,65.9,29.88,NE,45,1.8,2.9,80,0.00,,,0.00,WUHU216HW,2013-02-22 04:44:00,
2013-02-21 18:49:00,72.5,66.1,29.88,South,180,4.3,4.5,80,0.00,,,0.00,WUHU216HW,2013-02-22 04:49:00,
2013-02-21 18:54:00,72.5,66.1,29.88,East,90,2.2,4.5,80,0.00,,,0.00,WUHU216HW,2013-02-22 04:54:00,
2013-02-21 18:59:00,72.5,66.1,29.88,East,90,2.2,4.3,80,0.00,,,0.00,WUHU216HW,2013-02-22 04:59:00,
2013-02-21 19:00:00,72.5,66.1,29.88,East,90,2.2,4.3,80,0.00,,,0.00,WUHU216HW,2013-02-22 05:00:00,
2013-02-21 19:05:00,72.5,66.1,29.88,South,180,2.9,2.9,80,0.00,,,0.00,WUHU216HW,2013-02-22 05:05:00,
2013-02-21 19:10:00,72.7,66.2,29.89,South,180,3.4,3.4,80,0.00,,,0.00,WUHU216HW,2013-02-22 05:10:00,
2013-02-21 19:15:00,72.7,66.2,29.88,SSE,158,2.9,3.4,80,0.00,,,0.00,WUHU216HW,2013-02-22 05:15:00,
2013-02-21 19:20:00,72.7,66.2,29.88,NNE,23,1.1,3.4,80,0.00,,,0.00,WUHU216HW,2013-02-22 05:20:00,
2013-02-21 19:25:00,72.9,66.4,29.88,ESE,113,2.5,2.5,80,0.00,,,0.00,WUHU216HW,2013-02-22 05:25:00,
2013-02-21 19:30:00,72.9,66.4,29.88,NNE,23,5.4,5.4,80,0.00,,,0.00,WUHU216HW,2013-02-22 05:30:00,
2013-02-21 19:35:00,72.9,66.4,29.89,WSW,248,3.8,5.4,80,0.00,,,0.00,WUHU216HW,2013-02-22 05:35:00,
2013-02-21 19:40:00,72.9,66.4,29.89,South,180,2.0,4.3,80,0.00,,,0.00,WUHU216HW,2013-02-22 05:40:00,
2013-02-21 19:45:00,73.1,66.6,29.89,SE,135,3.1,3.8,80,0.00,,,0.00,WUHU216HW,2013-02-22 05:45:00,
2013-02-21 19:50:00,73.1,66.6,29.90,NNE,23,3.4,3.4,80,0.00,,,0.00,WUHU216HW,2013-02-22 05:50:00,
2013-02-21 19:55:00,73.1,66.3,29.90,South,180,2.5,4.5,79,0.00,,,0.00,WUHU216HW,2013-02-22 05:55:00,
2013-02-21 20:00:00,73.1,66.3,29.90,East,90,4.0,4.5,79,0.00,,,0.00,WUHU216HW,2013-02-22 06:00:00,
2013-02-21 20:05:00,73.1,66.3,29.90,NE,45,2.7,4.0,79,0.00,,,0.00,WUHU216HW,2013-02-22 06:05:00,
2013-02-21 20:10:00,73.1,66.3,29.90,SSE,158,2.7,6.0,79,0.00,,,0.00,WUHU216HW,2013-02-22 06:10:00,
2013-02-21 20:15:00,73.1,66.3,29.90,NNW,338,3.6,6.0,79,0.00,,,0.00,WUHU216HW,2013-02-22 06:15:00,
2013-02-21 20:20:00,73.1,66.3,29.90,SW,225,2.2,3.6,79,0.00,,,0.00,WUHU216HW,2013-02-22 06:20:00,
2013-02-21 20:25:00,73.1,66.3,29.90,SE,135,2.7,2.7,79,0.00,,,0.00,WUHU216HW,2013-02-22 06:25:00,
2013-02-21 20:30:00,73.1,66.3,29.91,East,90,1.8,2.7,79,0.00,,,0.00,WUHU216HW,2013-02-22 06:30:00,
2013-02-21 20:35:00,73.1,66.3,29.91,East,90,3.4,4.0,79,0.00,,,0.00,WUHU216HW,2013-02-22 06:35:00,
2013-02-21 20:40:00,73.1,66.3,29.91,ENE,68,2.7,4.0,79,0.00,,,0.00,WUHU216HW,2013-02-22 06:40:00,
2013-02-21 20:45:00,73.1,66.3,29.91,ESE,113,2.5,4.0,79,0.00,,,0.00,WUHU216HW,2013-02-22 06:45:00,
2013-02-21 20:50:00,73.1,66.3,29.91,West,270,1.3,4.0,79,0.00,,,0.00,WUHU216HW,2013-02-22 06:50:00,
2013-02-21 20:55:00,73.1,66.3,29.90,ENE,68,4.3,4.3,79,0.00,,,0.00,WUHU216HW,2013-02-22 06:55:00,
2013-02-21 21:00:00,73.1,66.3,29.90,SSE,158,2.5,4.3,79,0.00,,,0.00,WUHU216HW,2013-02-22 07:00:00,
2013-02-21 21:05:00,73.1,66.3,29.91,NNE,23,5.4,5.4,79,0.00,,,0.00,WUHU216HW,2013-02-22 07:05:00,
2013-02-21 21:10:00,73.1,66.3,29.91,NNW,338,4.9,5.4,79,0.00,,,0.00,WUHU216HW,2013-02-22 07:10:00,
2013-02-21 21:15:00,73.1,66.3,29.91,ENE,68,3.4,5.4,79,0.00,,,0.00,WUHU216HW,2013-02-22 07:15:00,
2013-02-21 21:20:00,72.9,66.1,29.91,North,0,3.6,8.5,79,0.00,,,0.00,WUHU216HW,2013-02-22 07:20:00,
2013-02-21 21:23:00,72.9,66.1,29.92,NNW,338,5.1,5.1,79,0.00,,,0.00,WUHU216HW,2013-02-22 07:23:00,
2013-02-21 21:25:00,72.9,66.1,29.92,NNW,338,5.1,8.5,79,0.00,,,0.00,WUHU216HW,2013-02-22 07:25:00,
2013-02-21 21:30:00,72.9,66.1,29.92,NNW,338,5.1,5.1,79,0.00,,,0.00,WUHU216HW,2013-02-22 07:30:00,
2013-02-21 21:53:00,72.4,65.5,29.92,SE,135,1.6,1.6,79,0.00,,,0.00,WUHU216HW,2013-02-22 07:53:00,
2013-02-21 21:58:00,72.4,65.5,29.92,SSE,158,3.4,3.4,79,0.00,,,0.00,WUHU216HW,2013-02-22 07:58:00,
2013-02-21 22:03:00,72.4,65.5,29.92,NW,315,1.8,3.4,79,0.00,,,0.00,WUHU216HW,2013-02-22 08:03:00,
2013-02-21 22:08:00,72.4,65.9,29.91,SSE,158,3.4,3.4,80,0.00,,,0.00,WUHU216HW,2013-02-22 08:08:00,
2013-02-21 22:13:00,72.4,65.9,29.91,SE,135,3.4,3.4,80,0.00,,,0.00,WUHU216HW,2013-02-22 08:13:00,
2013-02-21 22:18:00,72.5,66.4,29.91,East,90,4.3,4.3,81,0.00,,,0.00,WUHU216HW,2013-02-22 08:18:00,
2013-02-21 22:23:00,72.5,66.4,29.91,South,180,3.6,4.3,81,0.00,,,0.00,WUHU216HW,2013-02-22 08:23:00,
2013-02-21 22:28:00,72.5,66.4,29.91,South,180,4.9,4.9,81,0.00,,,0.00,WUHU216HW,2013-02-22 08:28:00,
2013-02-21 22:33:00,72.7,66.6,29.91,South,180,3.4,4.9,81,0.00,,,0.00,WUHU216HW,2013-02-22 08:33:00,
2013-02-21 22:38:00,72.7,66.6,29.91,NE,45,2.5,5.4,81,0.00,,,0.00,WUHU216HW,2013-02-22 08:38:00,
2013-02-21 22:43:00,72.7,66.6,29.91,ENE,68,2.0,5.4,81,0.00,,,0.00,WUHU216HW,2013-02-22 08:43:00,
2013-02-21 22:48:00,72.5,66.1,29.91,SSW,203,3.1,4.3,80,0.00,,,0.00,WUHU216HW,2013-02-22 08:48:00,
2013-02-21 22:53:00,72.5,66.1,29.92,North,0,2.2,3.1,80,0.00,,,0.00,WUHU216HW,2013-02-22 08:53:00,
2013-02-21 22:58:00,72.7,66.2,29.91,SE,135,2.9,3.1,80,0.00,,,0.00,WUHU216HW,2013-02-22 08:58:00,
2013-02-21 23:03:00,72.7,66.2,29.91,SSE,158,1.8,3.4,80,0.00,,,0.00,WUHU216HW,2013-02-22 09:03:00,
2013-02-21 23:08:00,72.7,66.2,29.91,North,0,3.4,3.4,80,0.00,,,0.00,WUHU216HW,2013-02-22 09:08:00,
2013-02-21 23:13:00,72.5,66.1,29.91,SSE,158,3.8,3.8,80,0.00,,,0.00,WUHU216HW,2013-02-22 09:13:00,
2013-02-21 23:18:00,72.5,66.1,29.91,NNE,23,3.8,3.8,80,0.00,,,0.00,WUHU216HW,2013-02-22 09:18:00,
2013-02-21 23:23:00,72.5,66.1,29.90,WSW,248,5.4,5.4,80,0.00,,,0.00,WUHU216HW,2013-02-22 09:23:00,
2013-02-21 23:28:00,72.5,66.1,29.91,NE,45,2.0,5.4,80,0.00,,,0.00,WUHU216HW,2013-02-22 09:28:00,
2013-02-21 23:33:00,72.5,66.1,29.91,North,0,3.4,5.4,80,0.00,,,0.00,WUHU216HW,2013-02-22 09:33:00,
2013-02-21 23:38:00,72.5,66.1,29.91,South,180,2.7,4.0,80,0.00,,,0.00,WUHU216HW,2013-02-22 09:38:00,
2013-02-21 23:43:00,72.5,66.1,29.91,East,90,4.0,4.0,80,0.00,,,0.00,WUHU216HW,2013-02-22 09:43:00,
2013-02-21 23:48:00,72.7,66.2,29.91,ESE,113,2.7,4.0,80,0.00,,,0.00,WUHU216HW,2013-02-22 09:48:00,
2013-02-21 23:53:00,72.7,66.2,29.91,SE,135,3.4,4.0,80,0.00,,,0.00,WUHU216HW,2013-02-22 09:53:00,
2013-02-21 23:58:00,72.7,66.2,29.91,SSE,158,3.6,4.0,80,0.00,,,0.00,WUHU216HW,2013-02-22 09:58:00,